This is the latest recevied weather packets stored in our database for station/object PP5CFL-2. If no packets are shown the sender has not sent any weather packets the latest 10 day(s).
| Time | Temp. | Humidity | Pressure | Rain* | Wind** | Luminosity | Snow |
|---|---|---|---|---|---|---|---|
| 1788448317 | 28.33° C | 49% | 1014.4 hPa | - | - | - | - |
| 1788448017 | 28.89° C | 50% | 1014.4 hPa | - | - | - | - |
| 1788447717 | 28.89° C | 49% | 1014.5 hPa | - | - | - | - |
| 1788447417 | 28.89° C | 49% | 1014.6 hPa | - | - | - | - |
| 1788447117 | 28.89° C | 49% | 1014.7 hPa | - | - | - | - |
| 1788446817 | 29.44° C | 49% | 1014.8 hPa | - | - | - | - |
| 1788446517 | 29.44° C | 48% | 1014.7 hPa | - | - | - | - |
| 1788446217 | 30° C | 49% | 1014.8 hPa | - | - | - | - |
| 1788445917 | 30° C | 50% | 1014.9 hPa | - | - | - | - |
| 1788445617 | 30° C | 49% | 1014.8 hPa | - | - | - | - |
| 1788445317 | 30.56° C | 50% | 1014.8 hPa | - | - | - | - |
| 1788445017 | 31.11° C | 47% | 1014.9 hPa | - | - | - | - |
| 1788444717 | 31.11° C | 47% | 1014.8 hPa | - | - | - | - |
| 1788444417 | 30.56° C | 48% | 1015.1 hPa | - | - | - | - |
| 1788444117 | 31.11° C | 49% | 1015.1 hPa | - | - | - | - |
| 1788443817 | 31.11° C | 48% | 1015.2 hPa | - | - | - | - |
| 1788443517 | 31.11° C | 49% | 1015.2 hPa | - | - | - | - |
| 1788443217 | 30.56° C | 49% | 1015.3 hPa | - | - | - | - |
| 1788442917 | 31.11° C | 50% | 1015.4 hPa | - | - | - | - |
| 1788442617 | 30.56° C | 50% | 1015.3 hPa | - | - | - | - |
| 1788442317 | 30° C | 50% | 1015.4 hPa | - | - | - | - |
| 1788442017 | 30.56° C | 51% | 1015.4 hPa | - | - | - | - |
| 1788441717 | 30° C | 51% | 1015.6 hPa | - | - | - | - |
| 1788441417 | 30° C | 52% | 1015.5 hPa | - | - | - | - |
| 1788441117 | 29.44° C | 53% | 1015.5 hPa | - | - | - | - |
* Rain since midnight (hover to see other rain measurements)
** Current wind speed in m/s (hover to see current wind gust speed)